Regional Weather Roundup
Issued by NWS Jackson, KY

Home | Current Version | Previous Version | Graphics & Text | Print | Product List | Glossary On
Versions: 1 2 3 4 5 6 7 8 9 10 11 12 13 14 15 16 17 18 19 20 21 22 23 24 25 26 27 28 29 30 31 32 33 34 35 36 37 38 39 40 41 42 43 44 45 46 47 48 49 50
000
ASUS43 KJKL 272310
RWRJKL

EAST KENTUCKY HOURLY WEATHER ROUNDUP
NATIONAL WEATHER SERVICE JACKSON KY
700 PM EDT MON JUL 27 2015

NOTE: "FAIR" INDICATES FEW OR NO CLOUDS BELOW 12,000 FEET WITH
NO SIGNIFICANT WEATHER AND/OR OBSTRUCTIONS TO VISIBILITY.

* THESE REPORTS ARE NOT UNDER NWS QUALITY CONTROL AND MAY NOT
  REPORT WEATHER SUCH AS PRECIPITATION AND FOG.

KYZ079-080-083-085-087-088-110-112-115-119-120-280000
...EASTERN KENTUCKY...

CITY           SKY/WX    TMP DP  RH WIND       PRES   REMARKS
JACKSON        LGT RAIN  77  72  84 W3        29.98F
LONDON         PTSUNNY   84  69  60 SE7       29.97F
SOMERSET*      SUNNY     84  70  61 W7        29.97F
MONTICELLO*    PTSUNNY   87  74  65 CALM      29.99F HX  95
WILLIAMSBURG*  SUNNY     86  73  66 N3        29.96F HX  93
MIDDLESBORO*   PTSUNNY   84  75  74 N7        29.97F HX  92
HAZARD APT*    CLEAR     84  72  65 SW3       29.98F
BLACK MTN*       N/A     73  68  83 S3          N/A
PIKEVILLE APT* MOSUNNY   81  72  74 CALM      29.99F
BIG SANDY*     CLEAR     84  72  67 CALM      29.98S HX  90
MOREHEAD APT*  PTCLDY    79  75  89 CALM      29.97F
$$

KYZ035-036-041-042-044-050-067-078-099-280000
...CENTRAL KENTUCKY...

CITY           SKY/WX    TMP DP  RH WIND       PRES   REMARKS
MT STERLING*   SUNNY     86  73  66 NW3       29.97F HX  93
FLEMING/MASON* MOSUNNY   82  73  74 NE7       29.97S
DANVILLE*      SUNNY     86  72  62 W5        29.96F HX  92
RICHMOND*      SUNNY     84  72  65 W3        29.95F
LEXINGTON      SUNNY     87  72  60 W6        29.95F HX  93
FRANKFORT      SUNNY     85  71  63 SW5       29.93F HX  90
$$

KYZ091>093-OHZ055-061-077-WVZ005-015-034-035-042-280000
...SOUTHERN OHIO/WEST VIRGINIA...

CITY           SKY/WX    TMP DP  RH WIND       PRES   REMARKS
COVINGTON      MOSUNNY   86  70  58 N6        29.94F HX  90
COLUMBUS       PTSUNNY   84  69  60 NE8       29.96S
DAYTON         PTSUNNY   82  73  74 NE8       29.98F
WILMINGTON     SUNNY     82  69  64 CALM      29.96F
HUNTINGTON     MOSUNNY   80  72  76 S6        29.94F
CHARLESTON     LGT RAIN  73  70  90 SE9G21    29.98R FOG
PINEVILLE*     MOSUNNY   79  75  89 MISG      30.06S
BECKLEY        PTSUNNY   81  66  60 W6        30.05F
BLUEFIELD      SUNNY     82  65  56 W5        30.08F
$$

VAZ002-007-008-TNZ017-027-036-066-071-280000
...SOUTHWEST VIRGINIA/EAST TENNESSEE...

CITY           SKY/WX    TMP DP  RH WIND       PRES   REMARKS
WISE*          PTSUNNY   81  66  61 S3        30.08F
ABINGDON*      MOSUNNY   83  68  60 CALM      30.04F
BRISTOL        MOSUNNY   83  72  69 E3        30.00F
KNOXVILLE      PTSUNNY   89  71  55 NW5       29.95F HX  95
OAK RIDGE      CLOUDY    88  73  61 VRB3      29.97S HX  95
CROSSVILLE     MOSUNNY   86  69  56 NW5       30.02F HX  90
NASHVILLE      PTSUNNY   92  70  48 VRB6      29.93F HX  97
$$

...KEY TO REMARKS...
VSB - VISIBILITY IN MILES
WCI - WIND CHILL INDEX
HX  - HEAT INDEX

$$



USA.gov is the U.S. government's official web portal to all federal, state and local government web resources and services.